星链-30965 (STARLINK-30965 )

导读

STARLINK-30965是美国SpaceX公司星链(Starlink)星座的成员卫星,于2023年12月3日发射入轨。星链计划旨在搭建全球低轨宽带互联网星座,为偏远地区、海洋等场景提供高速网络接入。该卫星采用平板设计,配备霍尔推进器与自主避撞系统,运行于近地轨道,设计寿命5-7年,退役后会坠入大气层焚毁,服务全球卫星互联网组网。

基本信息
目录编号:
58477
目录名称:
STARLINK-30965
国际标识:
2023-186E
轨道中心:
EARTH
卫星名称:
星链-30965
卫星全名:
星链-30965 (STARLINK-30965 )
卫星状态:
在轨 (已飞行1013 天)
发射日期:
2023-12-03 UTC
国别 :
美国 (US)
星等 :
--
该卫星已列入 空间交会检测服务 Space Conjunction Data Service (SCDS) ,当前飞行风险评估等级: 高风险
轨道信息
数据来源 国际轨道数据
星历时间: 2026-09-11T07:10:50+0800
18小时前
查看轨道信息
半长轴: 6861.214km
偏心率: 0.0001129
轨道倾角: 43.000°
近地点辐角 261.019°
升交点赤经 85.853°
平近点角 99.053°
近地点: 482.302km
远地点: 483.852km
周期: 94.267分钟
每日圈数: 15.27571
详细信息
固有亮度:
5
最大亮度:
0.3
卫星平台:
Starlink v2.0 mini
覆盖范围:
全球
运营商:
太空探索技术公司
运营商所在国:
美国
制造商(研发单位):
太空探索技术公司
制造商所在国:
美国
使用方式:
暂无
卫星简介
星链(Starlink)计划是由太空探索技术公司(SpaceX)提出的一个巨型低轨卫星互联网星座项目,计划在2019年至2024年间在太空搭建由约1.2万颗卫星组成的“星链”网络,其中1584颗将部署在地球上空550千米处的近地轨道,并从2020年开始工作。该卫星仍在工作。
2D轨道图
3D轨道图
轨道高度分析图
轨道倾角分析图
轨道综合分析图
查看轨道综合分析图
交会数据列表
事件ID 空间交会对象 最接近时刻(TCA) 交会距离 交会风险概率(CRP) 交会风险指数(CRI) 操作
CDM_260913-144705-779805-847722
2026-09-13T
14:47:12+0000
2.436 km
极远距离
1.811885E-6 低风险 0.4
与全量物体交会距离演化趋势
与全量物体交会风险概率演化趋势